SIS225 EDDM-ENSB

Flight info

Callsign SIS225
Flight time N/A
Altitude 51000
Route AKINI1Q AKINI Y104 MAMOR L132 AGNAV DCT SUPIL DCT KILNU DCT SALLO DCT NETAV DCT SULOB DCT INPAR
Aircraft C750/M-SBDE3FGHRWXY/S

Departure

Time 2026-05-06 11:13
Airport Munich Airport (EDDM)

Arrival

Time N/A
Airport Svalbard Airport, Longyear (ENSB)
Time Latitude Longitude Altitude Speed Heading
2026-05-06 10:47 48.35238 11.80413 1482 ft 0 kts 353°
2026-05-06 11:00 48.35226 11.80415 1475 ft 4 kts 353°
2026-05-06 11:01 48.35204 11.80419 1473 ft 4 kts 350°
2026-05-06 11:01 48.35189 11.80434 1476 ft 4 kts 274°
2026-05-06 11:01 48.35190 11.80469 1482 ft 2 kts 263°
2026-05-06 11:01 48.35190 11.80472 1482 ft 0 kts 263°
2026-05-06 11:05 48.35189 11.80460 1482 ft 4 kts 263°
2026-05-06 11:06 48.35184 11.80393 1478 ft 9 kts 263°
2026-05-06 11:06 48.35176 11.80287 1482 ft 10 kts 263°
2026-05-06 11:06 48.35167 11.80197 1475 ft 7 kts 264°
2026-05-06 11:06 48.35160 11.80079 1482 ft 14 kts 263°
2026-05-06 11:07 48.35148 11.79923 1482 ft 17 kts 264°
2026-05-06 11:07 48.35134 11.79735 1482 ft 19 kts 264°
2026-05-06 11:07 48.35121 11.79567 1482 ft 16 kts 269°
2026-05-06 11:07 48.35213 11.79496 1480 ft 18 kts 355°
2026-05-06 11:08 48.35346 11.79473 1482 ft 21 kts 353°
2026-05-06 11:08 48.35500 11.79448 1482 ft 24 kts 353°
2026-05-06 11:08 48.35672 11.79416 1472 ft 26 kts 353°
2026-05-06 11:08 48.35811 11.79392 1482 ft 18 kts 353°
2026-05-06 11:09 48.35904 11.79373 1480 ft 10 kts 339°
2026-05-06 11:09 48.35974 11.79337 1482 ft 12 kts 354°
2026-05-06 11:09 48.36059 11.79322 1479 ft 12 kts 349°
2026-05-06 11:09 48.36087 11.79239 1477 ft 10 kts 263°
2026-05-06 11:10 48.36077 11.79103 1472 ft 14 kts 264°
2026-05-06 11:10 48.36067 11.78969 1475 ft 12 kts 263°
2026-05-06 11:10 48.36056 11.78841 1482 ft 16 kts 263°
2026-05-06 11:10 48.36042 11.78660 1482 ft 17 kts 263°
2026-05-06 11:11 48.36037 11.78521 1482 ft 9 kts 284°
2026-05-06 11:11 48.36087 11.78485 1479 ft 8 kts 355°
2026-05-06 11:11 48.36162 11.78479 1482 ft 12 kts 11°
2026-05-06 11:11 48.36222 11.78547 1482 ft 13 kts 53°
2026-05-06 11:12 48.36302 11.78707 1482 ft 24 kts 53°
2026-05-06 11:12 48.36391 11.78884 1482 ft 18 kts 45°
2026-05-06 11:12 48.36445 11.78958 1478 ft 6 kts 84°
2026-05-06 11:12 48.36446 11.78967 1480 ft 10 kts 84°
2026-05-06 11:13 48.36493 11.79574 1482 ft 108 kts 83°
2026-05-06 11:13 48.36604 11.81007 1570 ft 154 kts 82°
2026-05-06 11:13 48.36727 11.82702 2058 ft 172 kts 83°
2026-05-06 11:13 48.36865 11.84548 2743 ft 183 kts 82°
2026-05-06 11:14 48.37224 11.86414 3533 ft 191 kts 64°
2026-05-06 11:14 48.38071 11.88018 4255 ft 203 kts 42°
2026-05-06 11:14 48.38858 11.88817 4777 ft 207 kts 33°
2026-05-06 11:14 48.40103 11.89938 5608 ft 209 kts 33°
2026-05-06 11:15 48.41343 11.91101 6408 ft 211 kts 34°
2026-05-06 11:15 48.42506 11.92439 7107 ft 213 kts 52°
2026-05-06 11:15 48.43333 11.94305 7879 ft 215 kts 60°
2026-05-06 11:15 48.44155 11.96217 8705 ft 219 kts 59°
2026-05-06 11:16 48.45012 11.98132 9531 ft 221 kts 58°
2026-05-06 11:16 48.45932 11.99996 10260 ft 223 kts 49°
2026-05-06 11:16 48.47076 12.01537 10934 ft 225 kts 36°
2026-05-06 11:16 48.48447 12.02741 11617 ft 226 kts 23°
2026-05-06 11:17 48.49919 12.03484 12279 ft 226 kts
2026-05-06 11:17 48.51474 12.03763 12944 ft 224 kts 356°
2026-05-06 11:17 48.53037 12.03753 13626 ft 225 kts 354°
2026-05-06 11:17 48.54607 12.03769 14221 ft 226 kts 355°
2026-05-06 11:18 48.56183 12.03780 14810 ft 227 kts 354°
2026-05-06 11:18 48.57766 12.03783 15391 ft 228 kts 354°
2026-05-06 11:18 48.59362 12.03785 15970 ft 230 kts 354°
2026-05-06 11:18 48.60972 12.03789 16567 ft 232 kts 354°
2026-05-06 11:19 48.62595 12.03962 17112 ft 241 kts 13°
2026-05-06 11:19 48.64154 12.04962 17689 ft 245 kts 24°
2026-05-06 11:19 48.65691 12.06075 18299 ft 245 kts 23°
2026-05-06 11:19 48.67250 12.07140 18847 ft 247 kts 22°
2026-05-06 11:20 48.68821 12.08199 19419 ft 247 kts 23°
2026-05-06 11:20 48.70392 12.09274 20000 ft 248 kts 23°
2026-05-06 11:20 48.71970 12.10357 20561 ft 249 kts 23°
2026-05-06 11:20 48.73555 12.11444 21115 ft 251 kts 23°
2026-05-06 11:21 48.75144 12.12557 21662 ft 252 kts 27°
2026-05-06 11:21 48.76692 12.13763 22192 ft 254 kts 24°
2026-05-06 11:21 48.78317 12.14836 22747 ft 255 kts 22°
2026-05-06 11:21 48.79938 12.15958 23319 ft 257 kts 25°
2026-05-06 11:22 48.81552 12.17142 23800 ft 258 kts 25°
2026-05-06 11:22 48.83175 12.18324 24272 ft 259 kts 24°
2026-05-06 11:22 48.84876 12.19241 24696 ft 259 kts 10°
2026-05-06 11:22 48.86640 12.19821 25153 ft 259 kts
2026-05-06 11:23 48.88407 12.20491 25553 ft 264 kts 12°
2026-05-06 11:23 48.90181 12.21294 25936 ft 268 kts 13°
2026-05-06 11:23 48.91979 12.22093 26326 ft 271 kts 12°
2026-05-06 11:23 48.93802 12.22864 26719 ft 274 kts 11°
2026-05-06 11:24 48.95647 12.23648 27119 ft 277 kts 11°
2026-05-06 11:24 48.97515 12.24454 27524 ft 280 kts 11°
2026-05-06 11:24 48.99404 12.25269 27932 ft 284 kts 11°
2026-05-06 11:24 49.01313 12.26091 28349 ft 287 kts 11°
2026-05-06 11:25 49.03244 12.26922 28769 ft 290 kts 10°
2026-05-06 11:25 49.05195 12.27764 29200 ft 293 kts 10°
2026-05-06 11:25 49.07146 12.28606 29628 ft 296 kts 10°
2026-05-06 11:25 49.09135 12.29466 30045 ft 299 kts 10°
2026-05-06 11:26 49.11144 12.30335 30419 ft 301 kts 10°
2026-05-06 11:26 49.13170 12.31212 30798 ft 304 kts 10°
2026-05-06 11:26 49.15211 12.32096 31183 ft 306 kts 10°
2026-05-06 11:26 49.17270 12.32988 31574 ft 309 kts 10°
2026-05-06 11:27 49.19353 12.33892 31966 ft 313 kts 10°
2026-05-06 11:27 49.21460 12.34807 32365 ft 316 kts 10°
2026-05-06 11:27 49.23581 12.35729 32764 ft 318 kts 10°
2026-05-06 11:27 49.25720 12.36661 33172 ft 320 kts 10°
2026-05-06 11:28 49.27868 12.37597 33589 ft 322 kts
2026-05-06 11:28 49.30027 12.38537 33970 ft 323 kts 10°
2026-05-06 11:28 49.32193 12.39482 34340 ft 324 kts 10°
2026-05-06 11:28 49.34340 12.40421 34708 ft 325 kts 10°
2026-05-06 11:29 49.36514 12.41371 35077 ft 325 kts 11°
2026-05-06 11:29 49.38697 12.42325 35448 ft 326 kts 11°
2026-05-06 11:29 49.40877 12.43280 35820 ft 326 kts 11°
2026-05-06 11:29 49.43060 12.44238 36199 ft 326 kts 11°
2026-05-06 11:30 49.45242 12.45195 36580 ft 326 kts 11°
2026-05-06 11:30 49.47421 12.46152 36969 ft 325 kts 11°
2026-05-06 11:30 49.49597 12.47108 37370 ft 325 kts 12°
2026-05-06 11:30 49.51764 12.48062 37771 ft 323 kts 12°
2026-05-06 11:31 49.53926 12.49014 38187 ft 322 kts 12°
2026-05-06 11:31 49.56075 12.49961 38570 ft 320 kts 12°
2026-05-06 11:31 49.58189 12.50893 38828 ft 320 kts 12°
2026-05-06 11:31 49.60336 12.51840 39092 ft 321 kts 12°
2026-05-06 11:32 49.62483 12.52789 39359 ft 321 kts 13°
2026-05-06 11:32 49.64630 12.53739 39631 ft 321 kts 13°
2026-05-06 11:32 49.66782 12.54692 39908 ft 321 kts 13°
2026-05-06 11:32 49.68963 12.55655 39932 ft 332 kts 13°
2026-05-06 11:33 49.71216 12.56653 39953 ft 342 kts 13°
2026-05-06 11:33 49.75928 12.58749 40053 ft 362 kts 13°
2026-05-06 11:34 49.80901 12.60962 40147 ft 382 kts 14°
2026-05-06 11:34 49.86140 12.63300 40230 ft 401 kts 14°
2026-05-06 11:35 49.91639 12.65759 40305 ft 421 kts 14°
2026-05-06 11:35 49.97394 12.68339 40388 ft 440 kts 14°
2026-05-06 11:36 50.03359 12.71020 40457 ft 458 kts 14°
2026-05-06 11:36 50.09610 12.73837 40516 ft 476 kts 14°
2026-05-06 11:37 50.16061 12.76753 40876 ft 485 kts 15°
2026-05-06 11:37 50.19305 12.78223 41247 ft 485 kts 15°
2026-05-06 11:37 50.22545 12.79691 41578 ft 485 kts 15°
2026-05-06 11:37 50.25790 12.81164 41925 ft 485 kts 15°
2026-05-06 11:38 50.29032 12.82639 42285 ft 485 kts 15°
2026-05-06 11:38 50.32278 12.84118 42626 ft 485 kts 15°
2026-05-06 11:38 50.35517 12.85594 42965 ft 485 kts 15°
2026-05-06 11:38 50.38714 12.87053 43286 ft 484 kts 15°
2026-05-06 11:39 50.41952 12.88535 43613 ft 484 kts 15°
2026-05-06 11:39 50.45172 12.90009 43928 ft 484 kts 15°
2026-05-06 11:39 50.48458 12.91237 44176 ft 483 kts
2026-05-06 11:39 50.51800 12.91735 44500 ft 481 kts
2026-05-06 11:40 50.55137 12.91893 44773 ft 480 kts 359°
2026-05-06 11:40 50.58488 12.92105 45022 ft 481 kts
2026-05-06 11:40 50.61828 12.92514 45273 ft 481 kts
2026-05-06 11:40 50.65168 12.92925 45512 ft 481 kts
2026-05-06 11:41 50.68509 12.93211 45720 ft 481 kts
2026-05-06 11:41 50.71857 12.93477 45941 ft 481 kts
2026-05-06 11:41 50.75200 12.93817 46157 ft 481 kts
2026-05-06 11:41 50.78503 12.94181 46352 ft 481 kts
2026-05-06 11:42 50.81848 12.94507 46535 ft 481 kts
2026-05-06 11:42 50.85196 12.94809 46718 ft 481 kts
2026-05-06 11:42 50.88540 12.95135 46908 ft 481 kts
2026-05-06 11:42 50.91884 12.95479 47079 ft 482 kts
2026-05-06 11:43 50.95228 12.95812 47254 ft 482 kts
2026-05-06 11:43 50.98581 12.96134 47425 ft 482 kts
2026-05-06 11:43 51.01924 12.96462 47588 ft 481 kts
2026-05-06 11:44 51.08612 12.97132 47852 ft 482 kts
2026-05-06 11:44 51.11956 12.97461 47962 ft 482 kts
2026-05-06 11:44 51.18643 12.98124 47758 ft 483 kts
2026-05-06 11:45 51.25401 12.98798 47779 ft 490 kts
2026-05-06 11:45 51.32228 12.99481 47777 ft 497 kts
2026-05-06 11:46 51.39187 13.00180 47772 ft 505 kts
2026-05-06 11:46 51.46235 13.00890 47781 ft 510 kts
2026-05-06 11:47 51.53338 13.01607 47773 ft 510 kts
2026-05-06 11:47 51.60400 13.02321 47768 ft 508 kts
2026-05-06 11:48 51.67479 13.03041 47777 ft 510 kts
2026-05-06 11:48 51.74578 13.03763 47763 ft 512 kts
2026-05-06 11:49 51.81708 13.04493 47779 ft 514 kts
2026-05-06 11:49 51.88868 13.05227 47781 ft 516 kts
2026-05-06 11:50 51.96050 13.05967 47776 ft 518 kts
2026-05-06 11:50 52.03204 13.06704 47789 ft 518 kts
2026-05-06 11:51 52.10402 13.07449 47784 ft 517 kts
2026-05-06 11:51 52.17577 13.08195 47791 ft 517 kts
2026-05-06 11:52 52.24774 13.08945 47797 ft 517 kts
2026-05-06 11:52 52.31954 13.09695 47793 ft 516 kts
2026-05-06 11:53 52.39118 13.10447 47797 ft 516 kts
2026-05-06 11:53 52.46240 13.11196 47791 ft 516 kts
2026-05-06 11:54 52.53426 13.11956 47792 ft 518 kts
2026-05-06 11:54 52.60500 13.12707 47784 ft 500 kts
2026-05-06 11:55 52.67481 13.13443 47809 ft 505 kts
2026-05-06 11:55 52.74545 13.14198 47796 ft 512 kts
2026-05-06 11:56 52.81689 13.14962 47801 ft 516 kts
2026-05-06 11:56 52.88855 13.15733 47801 ft 516 kts
2026-05-06 11:57 52.96022 13.16504 47799 ft 516 kts
2026-05-06 11:57 53.03156 13.17274 47796 ft 517 kts
2026-05-06 11:58 53.10328 13.18051 47795 ft 515 kts
2026-05-06 11:58 53.17499 13.18832 47805 ft 516 kts
2026-05-06 11:59 53.24676 13.19615 47811 ft 516 kts
2026-05-06 11:59 53.31848 13.20400 47829 ft 517 kts
2026-05-06 12:00 53.38983 13.21183 47817 ft 517 kts
2026-05-06 12:00 53.46165 13.21975 47829 ft 516 kts
2026-05-06 12:01 53.53343 13.22769 47835 ft 517 kts
2026-05-06 12:01 53.59359 13.23436 47836 ft 517 kts
2026-05-06 12:02 53.66492 13.24229 47833 ft 517 kts
2026-05-06 12:02 53.73670 13.25032 47840 ft 517 kts
2026-05-06 12:03 53.80862 13.25837 47851 ft 518 kts
2026-05-06 12:03 53.88065 13.26647 47854 ft 518 kts
2026-05-06 12:04 53.95209 13.27453 47865 ft 517 kts
2026-05-06 12:04 54.02400 13.28267 47870 ft 518 kts
2026-05-06 12:05 54.09590 13.29083 47861 ft 517 kts
2026-05-06 12:05 54.16770 13.29903 47865 ft 517 kts
2026-05-06 12:06 54.23945 13.30723 47877 ft 517 kts
2026-05-06 12:06 54.31125 13.31547 47871 ft 517 kts
2026-05-06 12:07 54.38260 13.32369 47878 ft 517 kts
2026-05-06 12:07 54.45447 13.33200 47879 ft 517 kts
2026-05-06 12:08 54.52621 13.34032 47879 ft 517 kts
2026-05-06 12:08 54.59811 13.34869 47880 ft 518 kts
2026-05-06 12:09 54.67004 13.35709 47885 ft 517 kts
2026-05-06 12:09 54.74191 13.36552 47887 ft 517 kts
2026-05-06 12:10 54.81334 13.37392 47898 ft 518 kts
2026-05-06 12:10 54.88517 13.38241 47912 ft 517 kts
2026-05-06 12:11 54.95702 13.38883 47895 ft 517 kts 359°
2026-05-06 12:11 55.02900 13.39441 47899 ft 517 kts 360°
2026-05-06 12:12 55.10088 13.39944 47912 ft 517 kts 359°
2026-05-06 12:12 55.17292 13.40482 47926 ft 517 kts 360°
2026-05-06 12:13 55.24495 13.41005 47923 ft 517 kts 359°
2026-05-06 12:13 55.31685 13.41538 47922 ft 517 kts 359°
2026-05-06 12:14 55.38828 13.42064 47919 ft 517 kts 359°
2026-05-06 12:14 55.46034 13.42599 47904 ft 517 kts 359°
2026-05-06 12:15 55.53217 13.43134 47903 ft 517 kts 359°
2026-05-06 12:15 55.60402 13.43670 47938 ft 517 kts 359°
2026-05-06 12:16 55.67589 13.44210 47939 ft 517 kts 359°
2026-05-06 12:16 55.74786 13.44751 47946 ft 517 kts 359°
2026-05-06 12:17 55.81978 13.45296 47938 ft 517 kts 359°
2026-05-06 12:17 55.89165 13.45840 47945 ft 517 kts 359°
2026-05-06 12:18 55.96308 13.46384 47940 ft 517 kts 359°
2026-05-06 12:18 56.03493 13.46933 47939 ft 517 kts 359°
2026-05-06 12:19 56.10691 13.47485 47955 ft 517 kts 359°
2026-05-06 12:19 56.17879 13.48038 47932 ft 517 kts 359°
2026-05-06 12:20 56.25086 13.48595 47926 ft 517 kts 359°
2026-05-06 12:20 56.32282 13.49153 47923 ft 517 kts 359°
2026-05-06 12:21 56.39430 13.49709 47939 ft 517 kts 359°
2026-05-06 12:21 56.46627 13.50272 47936 ft 518 kts 359°
2026-05-06 12:22 56.53823 13.50836 47929 ft 518 kts 359°
2026-05-06 12:22 56.61024 13.51404 47930 ft 518 kts 359°
2026-05-06 12:23 56.68228 13.51972 47918 ft 518 kts 359°
2026-05-06 12:23 56.75426 13.52545 47946 ft 518 kts 359°
2026-05-06 12:24 56.82647 13.53117 47914 ft 520 kts 359°
2026-05-06 12:24 56.89904 13.53697 47921 ft 523 kts 359°
2026-05-06 12:25 56.97134 13.54280 47924 ft 523 kts 359°
2026-05-06 12:25 57.04411 13.54865 47922 ft 523 kts 359°
2026-05-06 12:26 57.11685 13.55455 47917 ft 523 kts 359°
2026-05-06 12:26 57.18928 13.56041 47917 ft 523 kts 359°
2026-05-06 12:27 57.26216 13.56637 47915 ft 523 kts 359°
2026-05-06 12:27 57.33496 13.57232 47912 ft 523 kts 359°
2026-05-06 12:28 57.40778 13.57831 47915 ft 523 kts 359°
2026-05-06 12:28 57.48052 13.58431 47937 ft 524 kts 359°
2026-05-06 12:29 57.55340 13.59035 47927 ft 524 kts 359°
2026-05-06 12:29 57.62631 13.59641 47929 ft 524 kts 359°
2026-05-06 12:30 57.69870 13.60247 47923 ft 524 kts 359°
2026-05-06 12:30 57.77157 13.60857 47924 ft 524 kts 359°
2026-05-06 12:31 57.84430 13.61468 47920 ft 522 kts 359°
2026-05-06 12:31 57.91699 13.62083 47919 ft 522 kts 359°
2026-05-06 12:32 57.98947 13.62698 47924 ft 521 kts 359°
2026-05-06 12:32 58.06148 13.63311 47923 ft 520 kts 359°
2026-05-06 12:33 58.13384 13.63931 47944 ft 520 kts 359°
2026-05-06 12:33 58.20610 13.64552 47936 ft 519 kts 359°
2026-05-06 12:34 58.27832 13.65174 47933 ft 519 kts 359°